Regional Weather Roundup
Issued by NWS Sioux Falls, SD

Home | Current Version | Previous Version | Text Only | Print | Product List | Glossary On
Versions: 1 2 3 4 5 6 7 8 9 10 11 12 13 14 15 16 17 18 19 20 21 22 23 24 25 26 27 28 29 30 31 32 33 34 35 36 37 38 39 40 41 42 43 44 45 46 47 48 49 50
000
ASUS43 KFSD 240810
RWRFSD

WEATHER ROUNDUP FOR SE SOUTH DAKOTA/SW MINNESOTA/NW IOWA
NATIONAL WEATHER SERVICE SIOUX FALLS SD
300 AM CDT FRI MAR 24 2017

NOTE: "FAIR" INDICATES FEW OR NO CLOUDS BELOW 12,000 FEET WITH NO
SIGNIFICANT WEATHER AND OR OBSTRUCTIONS TO VISIBILITY.


SDZ038>040-050-052>070-240900-
SOUTHEAST SOUTH DAKOTA

CITY           SKY/WX    TMP DP  RH WIND       PRES   REMARKS
BROOKINGS      CLOUDY    35  34  96 N9        29.80F FOG     WCI  28
CHAMBERLAIN    CLOUDY    41  38  89 NW9       29.87R
HURON          CLOUDY    38  37  97 N12       29.84S
MADISON        FOG       36  36 100 N12       29.79F VSB 1/4
MITCHELL       CLOUDY    41  40  96 N15       29.84S
SIOUX FALLS    CLOUDY    42  40  92 N7        29.78S
WINNER         FAIR      42  39  89 N8        29.88R
YANKTON        CLOUDY    46  45  93 NW10      29.79R
$$

MNZ071-072-080-081-089-090-097-098-240900-
SOUTHWEST MINNESOTA

CITY           SKY/WX    TMP DP  RH WIND       PRES   REMARKS
FAIRMONT       RAIN      39  38  96 E5        29.82R FOG
JACKSON        RAIN      37  37 100 SE9       29.77F
LUVERNE        CLOUDY    37  36  93 NE7       29.76S
MARSHALL       FOG       35  35 100 N13       29.81F VSB 1/2 WCI  26
MONTEVIDEO     MIX PCPN  36  36 100 NE6       29.88R
PIPESTONE      CLOUDY    37  34  87 NE8       29.76F FOG
REDWOOD FALLS  CLOUDY    39  37  92 N7        29.79F FOG
TRACY          CLOUDY    37  37  98 N8        29.78F FOG
WINDOM         RAIN      37  37 100 NE9       29.78R
WORTHINGTON    LGT RAIN  37  36  93 NE9       29.73F FOG
$$

IAZ001>003-012>014-020>022-031-032-NEZ013-014-SDZ071-240900-
NORTHWEST IOWA

CITY           SKY/WX    TMP DP  RH WIND       PRES   REMARKS
CHEROKEE       LGT RAIN  43  42  95 N8        29.76R
ESTHERVILLE    CLOUDY    38  38 100 N10       29.76F FOG
LE MARS        LGT RAIN  46  45  93 SE5       29.78R
ORANGE CITY    RAIN      43  43 100 S3        29.80R
SHELDON        LGT RAIN  41  41 100 E7G14     29.73S
SIOUX CITY     LGT RAIN  48  48 100 N10       29.74F FOG
SPENCER        CLOUDY    41  40  96 NE10      29.76F
STORM LAKE     LGT RAIN  43  41  93 E5        29.76S
$$

ABBREVIATIONS USED IN REMARKS
   TC - TEMPERATURE IN CELSIUS
  WCI - WIND CHILL INDEX
   HX - HEAT INDEX
  VSB - VISIBILITY




USA.gov is the U.S. government's official web portal to all federal, state and local government web resources and services.